Location: Reutlingen
(48.4911°N, 9.2587°E)
Time: 04:33:30
(UTC+01:00)

ISS - Pass Details

Date: 04 January 2018
Orbit: 402 x 407 km, 51.6° (Epoch: 18 January)

Event Time Altitude Azimuth Distance (km) Brightness Sun altitude
Exits shadow 05:20:59 18° 70° (ENE) 1,072 -1.0 -27.7°
Drops below altitude 10° 05:21:58 10° 69° (ENE) 1,470 -0.2 -27.5°
Sets 05:23:57 0° 69° (ENE) 2,284 1.0 -27.2°
